Weather History for Chicago Executive, IL

Change the Weather History Date:

Thursday, June 20, 2013

  Actual Average Record
Temperature  
Mean Temperature 71 °F 70 °F  
Max Temperature 86 °F 80 °F 94 °F (2002)
Min Temperature 56 °F 60 °F 47 °F (2003)
Degree Days  
Heating Degree Days 0 1  
Month to date heating degree days 57 47  
Since 1 June heating degree days 57 47  
Since 1 July heating degree days 6372 6405  
Cooling Degree Days 6 6  
Month to date cooling degree days 56 86  
Year to date cooling degree days 137 128  
Since 1 June cooling degree days 56 86  
Growing Degree Days 20 (Base 50)    
Moisture  
Dew Point 56 °F    
Average Humidity 59    
Maximum Humidity 84    
Minimum Humidity 44    
Precipitation  
Precipitation 0.00 in 0.10 in 0.49 in (2000)
Month to date precipitation 1.40 2.80  
Year to date precipitation 11.36 14.29  
Sea Level Pressure  
Sea Level Pressure 30.13 in    
Wind  
Wind Speed 5 mph (SE)    
Max Wind Speed 13 mph    
Max Gust Speed 18 mph    
Visibility 10 miles    
Events      
T = Trace of Precipitation, MM = Missing Value Source: NWS Daily Summary

Daily Weather History Graph

Daily Weather History Graph

Search for Another Location

Airport:

Trip Planner

Search our weather history database for the weather conditions in past years. The results will help you decide how hot, cold, wet, or windy it might be!

Date:

Astronomy

Jun. 20, 2013 Rise Set
Actual Time 5:15 AM CDT 8:31 PM CDT
Civil Twilight 4:40 AM CDT 9:05 PM CDT
Nautical Twilight 3:56 AM CDT 9:50 PM CDT
Astronomical Twilight 3:02 AM CDT 10:44 PM CDT
Moon 5:31 PM CDT (6/20) 2:44 AM CDT (6/20)
Length of Visible Light 16h 24m
Length of Day
15h 15m
Waxing Gibbous, 89% of the Moon is Illuminated
Jun 20
Waxing Gibbous
Jun 23
Full
Jun 29
Last Quarter
Jul 8
New
Jul 15
First Quarter

Hourly Weather History & Observations

Time (CDT) Temp. Heat Index Dew Point Humidity Pressure Visibility Wind Dir Wind Speed Gust Speed Precip Events Conditions
12:52 AM 57.0 °F - 46.9 °F 69% 30.14 in 10.0 mi Calm Calm - N/A   Clear
1:52 AM 57.0 °F - 48.9 °F 74% 30.14 in 10.0 mi Calm Calm - N/A   Clear
2:52 AM 57.0 °F - 50.0 °F 77% 30.14 in 10.0 mi Calm Calm - N/A   Clear
3:52 AM 55.9 °F - 51.1 °F 84% 30.14 in 10.0 mi Calm Calm - N/A   Clear
4:52 AM 55.9 °F - 51.1 °F 84% 30.15 in 10.0 mi Calm Calm - N/A   Clear
5:52 AM 57.0 °F - 52.0 °F 83% 30.15 in 10.0 mi Calm Calm - N/A   Clear
6:52 AM 63.0 °F - 54.0 °F 72% 30.16 in 10.0 mi Calm Calm - N/A   Clear
7:52 AM 69.1 °F - 55.9 °F 63% 30.16 in 10.0 mi Calm Calm - N/A   Clear
8:52 AM 73.9 °F - 55.9 °F 53% 30.17 in 10.0 mi SSE 6.9 mph - N/A   Clear
9:52 AM 78.1 °F - 57.9 °F 50% 30.16 in 10.0 mi SSE 6.9 mph - N/A   Clear
10:52 AM 80.1 °F 81.2 °F 62.1 °F 54% 30.15 in 10.0 mi South 6.9 mph - N/A   Clear
11:52 AM 82.0 °F 82.7 °F 61.0 °F 49% 30.16 in 10.0 mi SE 5.8 mph - N/A   Clear
12:52 PM 84.9 °F 85.0 °F 61.0 °F 44% 30.14 in 10.0 mi South 11.5 mph - N/A   Partly Cloudy
1:52 PM 82.9 °F 83.3 °F 61.0 °F 47% 30.13 in 10.0 mi ESE 11.5 mph - N/A   Mostly Cloudy
2:52 PM 82.9 °F 83.7 °F 62.1 °F 49% 30.12 in 10.0 mi East 10.4 mph - N/A   Partly Cloudy
3:52 PM 82.9 °F 83.3 °F 61.0 °F 47% 30.12 in 10.0 mi SE 11.5 mph - N/A   Clear
4:52 PM 82.0 °F 82.4 °F 60.1 °F 47% 30.11 in 10.0 mi ESE 11.5 mph - N/A   Clear
5:52 PM 82.0 °F 82.1 °F 59.0 °F 45% 30.10 in 10.0 mi ESE 8.1 mph - N/A   Clear
6:52 PM 80.1 °F 80.6 °F 57.9 °F 47% 30.08 in 10.0 mi ESE 9.2 mph - N/A   Clear
7:52 PM 78.1 °F - 55.9 °F 46% 30.08 in 10.0 mi ESE 5.8 mph - N/A   Clear
8:52 PM 75.0 °F - 55.0 °F 50% 30.09 in 10.0 mi East 4.6 mph - N/A   Clear
9:52 PM 73.0 °F - 55.0 °F 53% 30.10 in 10.0 mi ESE 4.6 mph - N/A   Clear
10:52 PM 72.0 °F - 57.0 °F 59% 30.11 in 10.0 mi ESE 4.6 mph - N/A   Clear
11:52 PM 70.0 °F - 60.1 °F 71% 30.12 in 10.0 mi Calm Calm - N/A   Clear